This demonstration page uses our WeatherBlox Daily Observations layout. Learn more.

Left ArrowRight Arrow

39.95238, -75.16362

Hourly Observations for February 21, 2017

Temp ( °F °C ) Dew Point ( °F °C ) Humidity (%) Winds ( mph kmh ) Pressure ( in mb ) Visibility ( mi km ) Precip ( " mm )
12:54 am 00:54 Clear 39 3.9 15 -9.4 38 38 Calm 30.36 1028 10 16 0.00 0.00
1:54 am 01:54 Partly Cloudy 38 3.3 16 -8.9 41 41 ENE 5 7 30.35 1028 10 16 0.00 0.00
2:54 am 02:54 Partly Cloudy 36 2.2 16 -8.9 44 44 ENE 3 6 30.35 1028 10 16 0.00 0.00
3:54 am 03:54 Mostly Clear 34 1.1 16 -8.9 48 48 NE 6 9 30.36 1028 10 16 0.00 0.00
4:54 am 04:54 Partly Cloudy 34 1.1 17 -8.3 50 50 NE 7 11 30.37 1028 10 16 0.00 0.00
5:54 am 05:54 Mostly Cloudy 35 1.7 17 -8.3 48 48 NE 7 11 30.37 1029 10 16 0.00 0.00
6:54 am 06:54 Mostly Cloudy 35 1.7 18 -7.8 50 50 ENE 5 7 30.38 1029 10 16 0.00 0.00
7:54 am 07:54 Mostly Cloudy 38 3.3 21 -6.1 51 51 ENE 7 11 30.39 1029 10 16 0.00 0.00
8:54 am 08:54 Mostly Cloudy 39 3.9 23 -5 53 53 E 10 17 30.38 1029 10 16 0.00 0.00
9:54 am 09:54 Mostly Cloudy 45 7.2 29 -1.7 54 54 ESE 7 11 30.36 1028 10 16 0.00 0.00
10:54 am 10:54 Mostly Cloudy 46 7.8 30 -1.1 54 54 SSW 8 13 30.35 1028 10 16 0.00 0.00
11:54 am 11:54 Mostly Cloudy 48 8.9 28 -2.2 46 46 SSW 9 15 30.33 1027 10 16 0.00 0.00
12:54 pm 12:54 Cloudy 49 9.4 29 -1.7 46 46 SW 9 15 30.29 1026 10 16 0.00 0.00
1:54 pm 13:54 Cloudy 51 10.6 29 -1.7 43 43 S 12 19 30.25 1024 10 16 0.00 0.00
2:54 pm 14:54 Cloudy 51 10.6 29 -1.7 43 43 SSW 10 17 30.23 1024 10 16 0.00 0.00
3:54 pm 15:54 Mostly Cloudy 50 10 30 -1.1 46 46 SSW 10 17 30.21 1023 10 16 0.00 0.00
4:54 pm 16:54 Cloudy 49 9.4 28 -2.2 44 44 S 7 11 30.21 1023 10 16 0.00 0.00
5:54 pm 17:54 Mostly Cloudy 48 8.9 32 0 54 54 S 10 17 30.20 1023 10 16 0.00 0.00
6:54 pm 18:54 Mostly Cloudy 46 7.8 33 0.6 61 61 S 6 9 30.20 1023 10 16 0.00 0.00
7:54 pm 19:54 Cloudy 45 7.2 33 0.6 63 63 SE 5 7 30.19 1023 10 16 0.00 0.00
8:54 pm 20:54 Cloudy 43 6.1 32 0 65 65 SSE 3 6 30.20 1023 10 16 0.00 0.00
9:54 pm 21:54 Mostly Cloudy 43 6.1 32 0 65 65 S 5 7 30.19 1022 10 16 0.00 0.00
10:54 pm 22:54 Cloudy 42 5.6 33 0.6 71 71 SSW 7 11 30.16 1021 10 16 0.00 0.00
11:54 pm 23:54 Cloudy 42 5.6 34 1.1 73 73 Calm 30.13 1020 10 16 0.00 0.00

Powered by AerisWeather